This is the latest recevied weather packets stored in our database for station/object OE3MNS-12. If no packets are shown the sender has not sent any weather packets the latest 10 day(s).
| Time | Temp. | Humidity | Pressure | Rain* | Wind** | Luminosity | Snow |
|---|---|---|---|---|---|---|---|
| 1778412021 | 22.78° C | 42% | 1013.1 hPa | 1.02 mm | - | 721 W/m² | - |
| 1778411717 | 22.78° C | 42% | 1013.2 hPa | 1.02 mm | - | 712 W/m² | - |
| 1778411119 | 22.78° C | 41% | 1013.5 hPa | 1.02 mm | - | 685 W/m² | - |
| 1778410521 | 22.78° C | 41% | 1013.6 hPa | 1.02 mm | - | 710 W/m² | - |
| 1778409917 | 22.22° C | 42% | 1013.8 hPa | 1.02 mm | - | 713 W/m² | - |
| 1778409319 | 22.22° C | 42% | 1013.9 hPa | 1.02 mm | - | 724 W/m² | - |
| 1778408721 | 22.22° C | 41% | 1014 hPa | 1.02 mm | - | 719 W/m² | - |
| 1778408117 | 21.67° C | 42% | 1014.2 hPa | 1.02 mm | - | 701 W/m² | - |
| 1778407520 | 21.67° C | 42% | 1014.4 hPa | 1.02 mm | - | 700 W/m² | - |
| 1778406921 | 21.11° C | 42% | 1014.6 hPa | 1.02 mm | - | 693 W/m² | - |
| 1778406617 | 20.56° C | 42% | 1014.8 hPa | 1.02 mm | - | 686 W/m² | - |
| 1778406019 | 20.56° C | 42% | 1014.9 hPa | 1.02 mm | - | 663 W/m² | - |
| 1778405421 | 20.56° C | 43% | 1014.9 hPa | 1.02 mm | - | 655 W/m² | - |
| 1778405117 | 20° C | 44% | 1014.9 hPa | 1.02 mm | - | 653 W/m² | - |
| 1778404519 | 19.44° C | 43% | 1015.1 hPa | 1.02 mm | - | 631 W/m² | - |
| 1778403921 | 19.44° C | 42% | 1015 hPa | 1.02 mm | - | 615 W/m² | - |
| 1778403321 | 19.44° C | 44% | 1015.3 hPa | 1.02 mm | - | 600 W/m² | - |
| 1778403017 | 18.89° C | 47% | 1015.5 hPa | 1.02 mm | - | 587 W/m² | - |
| 1778402419 | 17.78° C | 50% | 1015.6 hPa | 1.02 mm | - | 562 W/m² | - |
| 1778401821 | 17.78° C | 51% | 1015.9 hPa | 1.02 mm | - | 545 W/m² | - |
| 1778401217 | 16.67° C | 53% | 1016 hPa | 1.02 mm | - | 522 W/m² | - |
| 1778400619 | 16.67° C | 53% | 1016.2 hPa | 1.02 mm | - | 501 W/m² | - |
| 1778400021 | 16.11° C | 55% | 1016.2 hPa | 1.02 mm | - | 479 W/m² | - |
| 1778399717 | 16.11° C | 54% | 1016.3 hPa | 1.02 mm | - | 466 W/m² | - |
| 1778399119 | 15° C | 57% | 1016.4 hPa | 1.02 mm | - | 444 W/m² | - |
* Rain latest hour (hover to see other rain measurements)
** Current wind speed in m/s (hover to see current wind gust speed)